Home   Weather   Eisenhüttenstadt   Past weeks

Flag for Germany Past Weather in Eisenhüttenstadt, Brandenburg, Germany — Yesterday and Last 2 Weeks

Now
32 °F

Clear.


Feels Like: 32 °F
Forecast: 43 / 52 °F
Wind: 1 mph from Southwest

Location: Zielona Gora Airport

Current Time: Apr 27, 2017 at 3:55:19 am

Latest Report: Apr 27, 2017 at 3:00 am


Visibility: 10 mi

Pressure: 29.92 "Hg

Humidity: 93%

Dew Point: 30 °F

Location of EisenhüttenstadtLocation

Past Weather in Eisenhüttenstadt — Graph

°F

Eisenhüttenstadt Temperature Yesterday

Maximum temperature yesterday: 48 °F (at 12:00 pm)
Minimum temperature yesterday: 36 °F (at 5:00 am)
Average temperature yesterday: 42 °F

High & Low Weather Summary for the Past Weeks

 TemperatureHumidityPressure
High57 °F (Apr 21, 2:30 pm)100% (Apr 16, 11:30 am)30.54 "Hg (Apr 16, 11:30 am)
Low28 °F (Apr 19, 5:30 am)34% (Apr 20, 2:00 pm)29.56 "Hg (Apr 25, 9:00 am)
Average42 °F75%30.01 "Hg
* Reported Apr 12 2:00 am — Apr 27 2:30 am, Eisenhüttenstadt, Weather by CustomWeather, © 2017

Note: Actual official high and low records may vary slightly from our data, if they occured in-between our weather recording intervals... More about our weather records

Advertising

Eisenhüttenstadt Weather History for the Previous 24 Hours

Scroll right to see more
 ConditionsComfort  
Time TempWeatherWind HumidityBarometerVisibility
2:30 am
Thu, Apr 27
30 °FClear.2 mph93%29.92 "Hg6 mi
2:00 am30 °FClear.No wind100%29.92 "Hg6 mi
1:30 am32 °FClear.1 mph93%29.92 "Hg6 mi
1:00 am32 °FClear.1 mph100%29.95 "Hg10 mi
12:30 am32 °FClear.2 mph93%29.95 "Hg10 mi
12:00 am34 °FClear.1 mph93%29.95 "Hg10 mi
11:30 pm
Wed, Apr 26
36 °FClear.2 mph87%29.95 "Hg10 mi
11:00 pm37 °FClear.1 mph87%29.92 "Hg10 mi
10:30 pm39 °FClear.2 mph81%29.92 "Hg10 mi
10:00 pm41 °FClear.5 mph76%29.92 "Hg10 mi
9:30 pm41 °FClear.6 mph76%29.92 "Hg10 mi
9:00 pm43 °FClear.6 mph66%29.92 "Hg10 mi
3:00 pm48 °FPassing clouds.5 mph40%29.89 "HgN/A
2:30 pm48 °FSunny.2 mph40%29.89 "Hg10 mi
2:00 pm48 °FSunny.2 mph40%29.89 "Hg10 mi
1:30 pm48 °FSunny.No wind40%29.89 "Hg10 mi
1:00 pm48 °FSunny.3 mph40%29.89 "Hg10 mi
12:30 pm48 °FPassing clouds.2 mph46%29.89 "HgN/A
12:00 pm48 °FPassing clouds.3 mph50%29.89 "HgN/A
11:30 am46 °FPassing clouds.3 mph50%29.89 "HgN/A
11:00 am46 °FPassing clouds.3 mph50%29.89 "HgN/A
10:30 am46 °FSunny.1 mph50%29.89 "Hg10 mi
10:00 am45 °FSunny.1 mph57%29.86 "Hg10 mi
9:30 am45 °FSunny.1 mph61%29.86 "Hg10 mi
9:00 am43 °FSunny.1 mph66%29.86 "Hg10 mi
8:30 am41 °FSunny.1 mph81%29.86 "Hg10 mi
8:00 am39 °FSunny.1 mph87%29.86 "Hg10 mi
7:30 am37 °FSunny.1 mph93%29.86 "Hg10 mi
7:00 am36 °FSunny.1 mph93%29.83 "Hg10 mi
6:30 am36 °FSunny.1 mph93%29.83 "Hg10 mi
6:00 am36 °FSunny.1 mph93%29.83 "Hg10 mi
5:30 am37 °FClear.No wind87%29.83 "Hg10 mi
5:00 am36 °FClear.2 mph93%29.83 "Hg10 mi
4:30 am37 °FClear.1 mph87%29.80 "Hg10 mi
4:00 am37 °FClear.2 mph87%29.83 "Hg10 mi
3:30 am39 °FClear.3 mph81%29.80 "Hg10 mi
3:00 am39 °FClear.2 mph81%29.80 "Hg10 mi
Weather by CustomWeather, © 2017

See weather overviewHow to use our weather pages